TimeIST,TemperatureF,Dew PointF,Humidity,Sea Level PressureIn,VisibilityMPH,Wind Direction,Wind SpeedMPH,Gust SpeedMPH,PrecipitationIn,Events,Conditions,WindDirDegrees,DateUTC
12:10 AM,77.0,75.2,94,29.80,1.9,SSE,4.6,-,N/A,Rain,Light Rain,150,2013-08-16 18:40:00
12:40 AM,77.0,75.2,94,29.77,1.9,SSE,4.6,-,N/A,Rain,Light Rain,150,2013-08-16 19:10:00
1:10 AM,77.0,75.2,94,29.77,1.9,East,4.6,-,N/A,Rain,Light Rain,80,2013-08-16 19:40:00
1:40 AM,78.8,75.2,89,29.77,1.9,NNW,4.6,-,N/A,,Light Drizzle,340,2013-08-16 20:10:00
2:30 AM,78,75,89,29.74,2,NNW,5.8,,,Rain,Light Drizzle,340,2013-08-16 21:00:00
2:40 AM,78.8,75.2,89,29.74,2.5,North,6.9,-,N/A,,Haze,350,2013-08-16 21:10:00
3:10 AM,78.8,75.2,89,29.74,2.5,North,6.9,-,N/A,,Haze,350,2013-08-16 21:40:00
3:40 AM,78.8,75.2,89,29.74,2.5,North,4.6,-,N/A,,Haze,350,2013-08-16 22:10:00
4:10 AM,77.0,75.2,94,29.74,2.5,North,4.6,-,N/A,,Haze,350,2013-08-16 22:40:00
4:40 AM,77.0,75.2,94,29.74,2.5,North,6.9,-,N/A,,Haze,350,2013-08-16 23:10:00
5:10 AM,77.0,75.2,94,29.74,2.5,NNW,6.9,-,N/A,,Haze,340,2013-08-16 23:40:00
5:30 AM,78,74,84,29.75,2,NNW,5.8,,,,Haze,340,2013-08-17 00:00:00
5:40 AM,77.0,73.4,89,29.74,2.5,North,5.8,-,N/A,,Haze,350,2013-08-17 00:10:00
6:10 AM,78.8,73.4,83,29.77,2.5,NW,6.9,-,N/A,,Haze,320,2013-08-17 00:40:00
6:40 AM,78.8,73.4,83,29.77,2.5,NW,6.9,-,N/A,,Haze,320,2013-08-17 01:10:00
7:10 AM,78.8,73.4,83,29.80,2.5,NW,6.9,-,N/A,,Haze,320,2013-08-17 01:40:00
7:40 AM,80.6,75.2,84,29.80,2.5,NW,5.8,-,N/A,,Haze,320,2013-08-17 02:10:00
8:10 AM,80.6,75.2,84,29.80,2.5,NW,5.8,-,N/A,,Haze,320,2013-08-17 02:40:00
8:30 AM,81,74,73,29.81,2,NW,5.8,,,,Haze,320,2013-08-17 03:00:00
8:40 AM,80.6,75.2,84,29.80,2.5,NW,6.9,-,N/A,,Haze,320,2013-08-17 03:10:00
9:10 AM,82.4,73.4,74,29.80,2.5,NW,6.9,-,N/A,,Haze,320,2013-08-17 03:40:00
10:10 AM,84.2,73.4,70,29.80,3.7,West,6.9,-,N/A,,Mostly Cloudy,260,2013-08-17 04:40:00
10:40 AM,86.0,71.6,62,29.80,3.7,West,6.9,-,N/A,,Scattered Clouds,260,2013-08-17 05:10:00
11:10 AM,87.8,71.6,58,29.80,3.7,West,9.2,-,N/A,,Scattered Clouds,280,2013-08-17 05:40:00
11:30 AM,90,69,40,29.78,2,WNW,9.2,,,,Haze,290,2013-08-17 06:00:00
11:40 AM,89.6,71.6,55,29.80,3.7,WNW,9.2,-,N/A,,Scattered Clouds,290,2013-08-17 06:10:00
12:10 PM,91.4,68.0,46,29.77,3.7,WNW,9.2,-,N/A,,Scattered Clouds,300,2013-08-17 06:40:00
12:40 PM,93.2,68.0,44,29.77,3.7,WNW,9.2,-,N/A,,Scattered Clouds,290,2013-08-17 07:10:00
1:10 PM,93.2,68.0,44,29.77,3.7,WNW,9.2,-,N/A,,Scattered Clouds,290,2013-08-17 07:40:00
1:40 PM,93.2,68.0,44,29.71,3.7,Variable,3.5,-,N/A,,Scattered Clouds,0,2013-08-17 08:10:00
2:10 PM,93.2,69.8,46,29.71,5.0,SSE,4.6,-,N/A,,Scattered Clouds,150,2013-08-17 08:40:00
2:30 PM,94,70,36,29.69,2,,3.5,,,,Haze,,2013-08-17 09:00:00
2:40 PM,93.2,71.6,49,29.68,5.0,South,4.6,-,N/A,,Scattered Clouds,180,2013-08-17 09:10:00
3:10 PM,93.2,71.6,49,29.68,3.7,South,3.5,-,N/A,,Partly Cloudy,190,2013-08-17 09:40:00
3:40 PM,93.2,73.4,52,29.68,2.5,Calm,Calm,-,N/A,,Partly Cloudy,0,2013-08-17 10:10:00
4:40 PM,91.4,73.4,55,29.68,3.1,South,8.1,-,N/A,,Haze,180,2013-08-17 11:10:00
5:10 PM,91.4,73.4,55,29.68,3.7,SSW,9.2,-,N/A,,Mostly Cloudy,210,2013-08-17 11:40:00
5:30 PM,89,71,47,29.69,2,South,6.9,,,,Haze,180,2013-08-17 12:00:00
5:40 PM,89.6,71.6,55,29.71,3.7,South,6.9,-,N/A,,Mostly Cloudy,190,2013-08-17 12:10:00
6:10 PM,87.8,71.6,58,29.71,3.7,South,4.6,-,N/A,,Mostly Cloudy,190,2013-08-17 12:40:00
6:40 PM,87.8,71.6,58,29.74,3.7,SSW,5.8,-,N/A,,Mostly Cloudy,210,2013-08-17 13:10:00
7:10 PM,86.0,71.6,62,29.74,3.7,South,6.9,-,N/A,,Mostly Cloudy,170,2013-08-17 13:40:00
7:40 PM,84.2,71.6,66,29.74,3.7,South,4.6,-,N/A,,Light Drizzle,180,2013-08-17 14:10:00
8:10 PM,84.2,71.6,66,29.77,3.1,South,3.5,-,N/A,,Light Drizzle,180,2013-08-17 14:40:00
8:30 PM,82,75,73,29.77,2,South,9.2,,,Rain,Light Rain,180,2013-08-17 15:00:00
8:40 PM,82.4,75.2,79,29.77,3.1,South,4.6,-,N/A,,Haze,180,2013-08-17 15:10:00
9:10 PM,82.4,75.2,79,29.80,3.1,South,4.6,-,N/A,,Haze,180,2013-08-17 15:40:00
9:40 PM,82.4,75.2,79,29.80,3.1,SSW,3.5,-,N/A,,Haze,210,2013-08-17 16:10:00
10:10 PM,82.4,75.2,79,29.80,3.1,SW,3.5,-,N/A,,Haze,220,2013-08-17 16:40:00
10:40 PM,82.4,75.2,79,29.80,3.1,SW,3.5,-,N/A,,Haze,220,2013-08-17 17:10:00
11:10 PM,82.4,75.2,79,29.80,3.1,SW,3.5,-,N/A,,Haze,230,2013-08-17 17:40:00
11:30 PM,81,75,77,29.81,2,Calm,Calm,,,,Haze,,2013-08-17 18:00:00
11:40 PM,80.6,75.2,84,29.80,3.1,Variable,2.3,-,N/A,,Haze,0,2013-08-17 18:10:00